Regional Weather Roundup
Issued by NWS Burlington, VT

Home | Current Version | Previous Version | Text Only | Print | Product List | Glossary On
Versions: 1 2 3 4 5 6 7 8 9 10 11 12 13 14 15 16 17 18 19 20 21 22 23 24 25 26 27 28 29 30 31 32 33 34 35 36 37 38 39 40 41 42 43 44 45 46 47 48 49 50
000
ASUS41 KBTV 031610
RWRBTV
VERMONT REGIONAL WEATHER ROUNDUP
NATIONAL WEATHER SERVICE BURLINGTON VT
1200 PM EDT THU SEP 03 2015

NOTE: "FAIR" INDICATES FEW OR NO CLOUDS BELOW 12,000 FEET WITH NO
SIGNIFICANT WEATHER AND/OR OBSTRUCTIONS TO VISIBILITY.

* THESE REPORTS ARE NOT UNDER NWS QUALITY CONTROL AND/OR DO NOT
  REPORT WEATHER SUCH AS PRECIPITATION AND FOG.

VTZ001>019-031700-
_____VERMONT_____


CITY           SKY/WX    TMP DP  RH WIND       PRES   REMARKS
BURLINGTON     PTSUNNY   79  68  69 N6        29.92S
MONTPELIER     MOSUNNY   75  66  73 N7        29.98S
MORRISVILLE    PTSUNNY   76  68  76 VRB6      29.94F
ST. JOHNSBURY*   N/A     77  67  71 MISG      29.90F
LYNDONVILLE*   CLOUDY    76  68  75 NW3       29.95F
MIDDLEBURY*    FAIR      81  67  61 N7        29.92F
RUTLAND*       SUNNY    N/A N/A N/A MISG        N/A
SPRINGFIELD    SUNNY     83  67  58 E6        29.90F
HIGHGATE*      CLOUDY    75  69  80 N7        29.93R
NEWPORT*       PTSUNNY   75  69  82 NE7       29.94F
BENNINGTON     SUNNY     81  68  64 SW3       29.91F
SUTTON*          N/A     75 N/A N/A MISG        N/A

_____LAKE CHAMPLAIN_____


CITY           SKY/WX    TMP DP  RH WIND       PRES   REMARKS

$$

NYZ007-026>031-035-052-083-031700-
_____NORTHERN NEW YORK_____


CITY           SKY/WX    TMP DP  RH WIND       PRES   REMARKS
PLATTSBURGH    MOSUNNY   79  70  74 NE10      29.92S
SARANAC LAKE   MOSUNNY   77  64  64 VRB3      29.97F
MASSENA        CLOUDY    76  68  76 NE6       29.95S
OGDENSBURG*    CLOUDY    75  70  83 CALM      29.95S
POTSDAM*       PTSUNNY   75  72  88 CALM      29.95S
WATERTOWN      PTSUNNY   80  70  71 VRB3      29.93F HAZE
FT DRUM        CLOUDY    77  71  82 N8        29.95R
ALBANY         MOSUNNY   83  68  60 VRB3      29.90F
GLENS FALLS    SUNNY     82  68  62 CALM      29.89F

$$
NHZ002-005-011-031700-
_____NEW HAMPSHIRE_____


CITY           SKY/WX    TMP DP  RH WIND       PRES   REMARKS
LEBANON        SUNNY     82  67  60 N5        29.90F
KEENE          SUNNY     81  66  61 NE3       29.89F
MT WASHINGTON  FOG       55  55 100 W23         N/A  VSB 0
PLYMOUTH       PTSUNNY   82  66  57 W7        29.89S
WHITEFIELD     CLOUDY    78  67  68 SW6       29.92F

$$

_____REGIONAL QUEBEC LOCATIONS_____


CITY           SKY/WX    TMP DP  RH WIND       PRES   REMARKS
MONTREAL       PTSUNNY   79  63  57 N9        29.94S
QUEBEC CITY    MOSUNNY   75  57  53 VRB6      29.93S
SHERBROOKE     PTSUNNY   77  64  65 NW7G18    29.93S

_____REGIONAL ONTARIO LOCATIONS_____


CITY           SKY/WX    TMP DP  RH WIND       PRES   REMARKS
OTTAWA         PTSUNNY   79  68  69 NE6       29.96S

______KEY______
VSB  - VISIBILITY IN MILES
WCI  - WIND CHILL INDEX
HX   - HEAT INDEX
$$
NNNN



USA.gov is the U.S. government's official web portal to all federal, state and local government web resources and services.